Regional Weather Roundup
Issued by NWS Austin/San Antonio, TX

Home | Current Version | Previous Version | Text Only | Print | Product List | Glossary On
Versions: 1 2 3 4 5 6 7 8 9 10 11 12 13 14 15 16 17 18 19 20 21 22 23 24 25 26 27 28 29 30 31 32 33 34 35 36 37 38 39 40 41 42 43 44 45 46 47 48 49 50
000
ASUS44 KEWX 200610
RWREWX
SOUTH TEXAS REGIONAL WEATHER ROUNDUP
NATIONAL WEATHER SERVICE AUSTIN/SAN ANTONIO TX
100 AM CDT WED SEP 20 2017

NOTE: "FAIR" INDICATED FEW OR NO CLOUDS BELOW 12,000 FEET WITH NO
SIGNIFICANT WEATHER AND/OR OBSTRUCTIONS TO VISIBILITY.

* - THESE STATIONS ARE NOT NWS OR FAA STATIONS...AND ARE NOT SUBJECT
    TO NWS AND FAA QUALITY CONTROL.

TXZ171-172-183>190-200700-
TEXAS HILL COUNTRY AND EDWARDS PLATEAU

CITY           SKY/WX    TMP DP  RH WIND       PRES   REMARKS
JUNCTION       CLEAR     69  68  96 NW5       29.90S
6HR MIN TEMP:  69; 6HR MAX TEMP:  77;

*LLANO         CLEAR     73  72  94 CALM      29.91S
BURNET         CLEAR     79  71  76 S7        29.92S
6HR MIN TEMP:  79; 6HR MAX TEMP:  87; 6HR PCP: TRACE;

*HORSESHOE BAY CLEAR     80  72  76 S9        29.90R
6HR MIN TEMP:  80; 6HR MAX TEMP:  87;

*KERRVILLE     MOCLDY    76  72  85 SE7       29.93S
6HR MIN TEMP:  76; 6HR MAX TEMP:  89;

*FREDERICKSBRG CLEAR     77  68  74 S8        29.92F
6HR MIN TEMP:  77; 6HR MAX TEMP:  87;

*ROCKSPRINGS   NOT AVBL
*BOERNE STAGE  MOCLDY    75  70  83 S6        29.93F
*CASTROVILLE   MOCLDY    79  69  71 SE5       29.91S
HONDO          MOCLDY    81  73  76 SE10      29.89S
6HR MIN TEMP:  81; 6HR MAX TEMP:  92; 6HR PCP: TRACE;

*UVALDE        MOCLDY    73  69  86 NE5       29.89S
6HR MIN TEMP:  72; 6HR MAX TEMP:  81;

DEL RIO        CLEAR     75  67  76 E6        29.85F
6HR MIN TEMP:  75; 6HR MAX TEMP:  89;

LAUGHLIN AFB   CLEAR     73  67  83 E7        29.86S
6HR MIN TEMP:  73; 6HR MAX TEMP:  88;

CARRIZO SPRGS  PTCLDY    77  73  88 SE5       29.84S
*EAGLE PASS    CLEAR     73  66  78 NE3       29.86R
$$

TXZ173-191>194-202-209-217>225-228-200700-
CENTRAL AND SOUTH CENTRAL TEXAS

CITY           SKY/WX    TMP DP  RH WIND       PRES   REMARKS
GEORGETOWN     MOCLDY    79  72  79 S10       29.91R
6HR MIN TEMP:  79; 6HR MAX TEMP:  88;

AUSTIN/BERGSTM MOCLDY    78  74  87 S5        29.89R
6HR MIN TEMP:  78; 6HR MAX TEMP:  89;

AUSTIN/MABRY   MOCLDY    79  73  82 S6        29.91R
6HR MIN TEMP:  79; 6HR MAX TEMP:  89;

*AUSTIN/EXEC   CLOUDY    77  73  88 S7        29.90S
*LAGO VISTA    MOCLDY    78  73  82 S10G20    29.92S
6HR MIN TEMP:  78; 6HR MAX TEMP:  86;

SAN MARCOS     MOCLDY    78  74  87 S10       29.89F
6HR MIN TEMP:  78; 6HR MAX TEMP:  88;

NEW BRAUNFELS  MOCLDY    78  73  84 S8        29.88F
6HR MIN TEMP:  78; 6HR MAX TEMP:  90;

RANDOLPH AFB   MOCLDY    77  77 100 S7        29.90F
6HR MIN TEMP:  77; 6HR MAX TEMP:  88;

PT SAN ANTONIO MOCLDY    80  73  78 SE9       29.88S
6HR MIN TEMP:  80; 6HR MAX TEMP:  91; 6HR PCP: TRACE;

SAN ANTONIO    MOCLDY    79  72  79 SE12      29.91S
6HR MIN TEMP:  79; 6HR MAX TEMP:  90;

STINSON FIELD  CLOUDY    80  74  81 SE7       29.87S
6HR MIN TEMP:  80; 6HR MAX TEMP:  92; 6HR PCP: TRACE;

*LA GRANGE     CLOUDY    79  77  92 S6        29.87S
6HR MIN TEMP:  79; 6HR MAX TEMP:  89;

*GIDDINGS      CLOUDY    78  74  87 S7        29.90R
6HR MIN TEMP:  78; 6HR MAX TEMP:  86;

*GONZALES      CLOUDY    78  78  99 S6        29.88F
6HR MIN TEMP:  78; 6HR MAX TEMP:  88;

$$

TXZ163>164-176>182-195>201-210>213-226-227-235-200700-
SOUTHEAST TEXAS

CITY           SKY/WX    TMP DP  RH WIND       PRES   REMARKS
COLLEGE STN    CLOUDY    79  75  87 S8        29.89R
6HR MIN TEMP:  79; 6HR MAX TEMP:  88;

*BRYAN         CLOUDY    78  75  92 S8        29.90S
6HR MIN TEMP:  78; 6HR MAX TEMP:  86;

*CALDWELL      CLOUDY    78  74  86 S5        29.90R
6HR MIN TEMP:  78; 6HR MAX TEMP:  86;

*CROCKETT      CLOUDY    77  75  94 SE6       29.92F
*BRENHAM       CLOUDY    80  77  90 S7        29.90R
6HR MIN TEMP:  80; 6HR MAX TEMP:  89;

HUNTSVILLE     CLOUDY    79  73  82 VRB6      29.89F
6HR MIN TEMP:  79; 6HR MAX TEMP:  87;

CONROE         PTCLDY    76  74  93 SE3       29.91R
6HR MIN TEMP:  76; 6HR MAX TEMP:  84;

HOUSTON BUSH   CLOUDY    80  76  87 SE9       29.89F
6HR MIN TEMP:  79; 6HR MAX TEMP:  87;

HOUSTON HOBBY  MOCLDY    82  76  81 SE5       29.89S
6HR MIN TEMP:  81; 6HR MAX TEMP:  86;

*HOUSTON SW AP PTCLDY    76  75  96 CALM      29.90S
6HR MIN TEMP:  75; 6HR MAX TEMP:  83;

PEARLAND       PTCLDY    82  76  81 SE6       29.91S
6HR MIN TEMP:  82; 6HR MAX TEMP:  87;

HOUSTON HOOKS  PTCLDY    80  76  87 SE3       29.90S
6HR MIN TEMP:  80; 6HR MAX TEMP:  87;

ELLINGTON FLD  MOCLDY    81  77  89 SE6       29.89F
SUGAR LAND     PTCLDY    80  77  90 SE9       29.88F
6HR MIN TEMP:  80; 6HR MAX TEMP:  87;

*HOUSTON EXEC  PTCLDY    79  75  89 S8        29.90S FOG
*CLEVELAND MUN PTCLDY    77  76  96 S3        29.91F FOG
6HR MIN TEMP:  77; 6HR MAX TEMP:  82;

*WHARTON       PTCLDY    76  73  92 SE5       29.90R FOG
6HR MIN TEMP:  76; 6HR MAX TEMP:  83;

*COLUMBUS      FAIR      78  76  92 SW5       29.89F
6HR MIN TEMP:  78; 6HR MAX TEMP:  86;

*EAGLE LAKE    CLOUDY    78  77  98 S5        29.88F
6HR MIN TEMP:  78; 6HR MAX TEMP:  87;

$$

TXZ214>216-236>238-200700-
THE UPPER TEXAS COAST

CITY           SKY/WX    TMP DP  RH WIND       PRES   REMARKS
*ORANGE        PTCLDY    80  78  95 S5        29.94F
6HR MIN TEMP:  80; 6HR MAX TEMP:  83;

PORT ARTHUR    PTCLDY    79  76  90 S8        29.92S
6HR MIN TEMP:  77; 6HR MAX TEMP:  82;

GALVESTON      CLOUDY    84  79  85 SE14      29.90F HX  96
6HR MIN TEMP:  84; 6HR MAX TEMP:  85;

ANGLETON       CLOUDY    81  76  84 S7        29.89S
6HR MIN TEMP:  79; 6HR MAX TEMP:  84;

*BAY CITY      PTCLDY    78  77  95 SE5       29.89S FOG
PALACIOS       PTCLDY    80  77  90 S13       29.88R
6HR MIN TEMP:  79; 6HR MAX TEMP:  82;

$$

TXZ229>234-239>247-200700-
TEXAS COASTAL BEND AND RIO GRANDE PLAINS

CITY           SKY/WX    TMP DP  RH WIND       PRES   REMARKS
VICTORIA       PTCLDY    78  75  90 SE7       29.89R
6HR MIN TEMP:  77; 6HR MAX TEMP:  85;

*BEEVILLE      MOCLDY    79  79 100 S5        29.89R
6HR MIN TEMP:  79; 6HR MAX TEMP:  86;

ROCKPORT       MOCLDY    83  77  82 S10G23    29.86R HX  92
6HR MIN TEMP:  82; 6HR MAX TEMP:  84;

*PORT ARANSAS  NOT AVBL
*PORT LAVACA   PTCLDY    79  75  86 S3        29.89R
6HR MIN TEMP:  79; 6HR MAX TEMP:  83;

*INGLESIDE     MOCLDY    82  79  89 MISG      29.85S HX  93
CORPUS CHRISTI MOCLDY    81  78  91 S17       29.85S
6HR MIN TEMP:  81; 6HR MAX TEMP:  85;

CORPUS NAS     PTCLDY    84  79  85 S16       29.85S HX  96
6HR MIN TEMP:  84; 6HR MAX TEMP:  86;

*ROBSTOWN      MOCLDY    81  77  88 S9        29.87R
6HR MIN TEMP:  81; 6HR MAX TEMP:  86;

ALICE          MOCLDY    80  76  87 S7        29.86R
6HR MIN TEMP:  80; 6HR MAX TEMP:  88;

KINGSVILLE NAS PTCLDY    82  80  94 S13       29.85S HX  94
6HR MIN TEMP:  82; 6HR MAX TEMP:  86;

COTULLA        PTCLDY    81  73  76 SE10      29.85S
6HR MIN TEMP:  80; 6HR MAX TEMP:  96; 6HR PCP:  0.06;

*FAITH RANCH   CLEAR     81  70  69 E6        29.84S
LAREDO         PTCLDY    85  72  65 S20       29.85R HX  91
6HR MIN TEMP:  85; 6HR MAX TEMP:  98;

$$

TXZ248>255-200700-
DEEP SOUTH TEXAS

CITY           SKY/WX    TMP DP  RH WIND       PRES   REMARKS
BROWNSVILLE    CLEAR     81  79  94 SE9       29.87F HX  90
6HR MIN TEMP:  80; 6HR MAX TEMP:  85;

PORT ISABEL    CLEAR     83  78  85 SE13      29.87F HX  93
6HR MIN T



USA.gov is the U.S. government's official web portal to all federal, state and local government web resources and services.